Location: *
(45.9500°N, 9.0833°E)
Time: 23:14:25
(UTC+00:00)

Tiros 1 despin weight - Pass Details

Date: 27 June 2021
Orbit: 593 x 642 km, 48.2° (Epoch: 02 August)

Event Time Altitude Azimuth Distance (km) Brightness Sun altitude
Rises 02:29:38 0° 230° (SW) 2,846 - -9.3°
Reaches altitude 10° 02:31:59 10° 225° (SW) 1,938 - -9.0°
Exits shadow 02:32:18 12° 224° (SW) 1,818 ? -9.0°
Maximum altitude 02:36:15 49° 151° (SSE) 777 ? -8.5°
Drops below altitude 10° 02:40:31 10° 77° (ENE) 1,928 ? -8.0°
Sets 02:42:51 0° 71° (ENE) 2,829 ? -7.7°
